Regional Weather Roundup
Issued by NWS

Home | Current Version | Previous Version | Text Only | Print | Product List | Glossary Off
Versions: 1 2 3 4 5 6 7 8 9 10 11 12 13 14 15 16 17 18 19 20 21 22 23 24 25 26 27 28 29 30 31 32 33 34 35 36 37 38 39 40 41 42 43 44 45 46 47 48 49 50

000
ASUS43 KIND 222059
RWRIN

WEATHER ROUNDUP FOR INDIANA
NATIONAL WEATHER SERVICE INDIANAPOLIS IN
500 PM EDT TUE JUL 22 2014

NOTE: "FAIR" INDICATES FEW OR NO CLOUDS BELOW 12,000 FEET WITH NO
SIGNIFICANT WEATHER AND/OR OBSTRUCTIONS TO VISIBILITY.

* - STATION DOES NOT REPORT WEATHER SUCH AS PRECIPITATION OR FOG.

+ - STATION NOT QUALITY CONTROLLED BY THE NATIONAL WEATHER SERVICE.
    USE DATA WITH CAUTION...ESPECIALLY DEWPOINT AND RELATIVE
    HUMIDITY OBSERVATIONS.

INZ001>003-010>013-019-020-222200-
NORTHWEST INDIANA

CITY           SKY/WX    TMP DP  RH WIND       PRES   REMARKS
GARY /AIRPORT/ MOSUNNY   88  70  55 SW12G23   29.95F
KNOX *+        SUNNY     86  67  52 SW10G17   29.98F
MONTICELLO +   SUNNY     84  71  64 S7        30.00F
RENSSELAER +   SUNNY     82  73  74 S13       30.00F
VALPARAISO     SUNNY     86  70  58 S16       29.98F

$$

LMZ046-743>745-222200-
SOUTHERN LAKE MICHIGAN

STATION/POSITION TIME  TEMP WIND        PRES
                       AIR  DIR/SP/G
                 (UTC) (F)  (DEG/KT/KT) (MB)
BURNS HARBOR     2000   85  200/ 14/ 21 1014.6
MICHIGAN CITY    2000   84  170/ 15/ 19   N/A

$$

INZ004-005-014>016-021>024-222200-
NORTH CENTRAL INDIANA

CITY           SKY/WX    TMP DP  RH WIND       PRES   REMARKS
ELKHART        SUNNY     86  64  48 SW10G18   29.99F
GOSHEN         SUNNY     88  67  49 SW13      29.99F
SOUTH BEND     SUNNY     88  67  49 S10       29.98F
WARSAW +       SUNNY     86  66  51 S7        30.01F

$$

INZ006>009-017-018-025>027-222200-
NORTHEAST INDIANA

CITY           SKY/WX    TMP DP  RH WIND       PRES   REMARKS
ANGOLA *+      SUNNY     88  68  51 SW13      30.01F
FORT WAYNE     MOSUNNY   89  66  46 SW14G21   30.03F

$$

INZ028-029-035-036-043>045-051>053-222200-
WEST CENTRAL INDIANA

CITY           SKY/WX    TMP DP  RH WIND       PRES   REMARKS
GREENCASTLE +  MOSUNNY   82  68  61 CALM      30.06F
LAFAYETTE      SUNNY     85  69  58 S12       30.00F
TERRE HAUTE    MOSUNNY   87  69  54 SW10G17   30.04F

$$

INZ030>032-037>040-046>048-054>057-064-065-222200-
CENTRAL INDIANA

CITY           SKY/WX    TMP DP  RH WIND       PRES   REMARKS
COLUMBUS       MOSUNNY   88  66  48 W8        30.05F
INDIANAPOLIS   MOSUNNY   87  66  49 SW17      30.05F
-EAGLE CREEK   MOSUNNY   86  65  49 SW10G18   30.04F
KOKOMO *+      SUNNY     88  66  48 SW13      30.03F
MT COMFORT *+  SUNNY     88  64  45 W10G16    30.06S
SHELBYVILLE    MOSUNNY   89  67  47 SW10      30.05F
ZIONSVILLE +   SUNNY     87  64  46 SW8       30.06F

$$

INZ033-034-041-042-049-050-058-059-222200-
EAST CENTRAL INDIANA

CITY           SKY/WX    TMP DP  RH WIND       PRES   REMARKS
MUNCIE         MOSUNNY   87  63  44 W9        30.05F

$$

INZ060-061-067>069-081>083-085>088-222200-
SOUTHWEST INDIANA

CITY           SKY/WX    TMP DP  RH WIND       PRES   REMARKS
EVANSVILLE     SUNNY     91  66  43 W7        30.05F
HUNTINGBURG *+ SUNNY     91  68  46 W7        30.05S HX  95

$$

INZ062-063-066-070>080-084-089>092-222200-
SOUTH CENTRAL AND SOUTHEAST INDIANA

CITY           SKY/WX    TMP DP  RH WIND       PRES   REMARKS
BLOOMINGTON    SUNNY     87  68  52 W7        30.07S

$$




USA.gov is the U.S. government's official web portal to all federal, state and local government web resources and services.